Weather History for K40J - January, 2014

Change the Weather History Date:

Tuesday, January 14, 2014

  Actual Average (KCTY) Record (KCTY)
Temperature  
Mean Temperature 58 °F 53 °F  
Max Temperature 71 °F 66 °F 82 °F (2013)
Min Temperature 44 °F 40 °F 19 °F (2011)
Degree Days  
Heating Degree Days 8 12  
Month to date heating degree days 179  
Since 1 July heating degree days 684  
Cooling Degree Days 0 0  
Month to date cooling degree days 0  
Year to date cooling degree days 0  
Growing Degree Days 8 (Base 50)    
Moisture  
Dew Point 51 °F    
Average Humidity 78    
Maximum Humidity 100    
Minimum Humidity 30    
Precipitation  
Precipitation 0.24 in 0.14 in 2.14 in (2002)
Month to date precipitation 1.79  
Year to date precipitation 1.79  
Sea Level Pressure  
Sea Level Pressure 29.96 in    
Wind  
Wind Speed 4 mph (West)    
Max Wind Speed 15 mph    
Max Gust Speed 18 mph    
Visibility 10 miles    
Events Rain    
T = Trace of Precipitation, MM = Missing Value Source: NWS Daily Summary

Daily Weather History Graph

Daily Weather History Graph

Search for Another Location

Airport or City:

Trip Planner

Search our weather history database for the weather conditions in past years. The results will help you decide how hot, cold, wet, or windy it might be!

Date:

Astronomy

Jan. 14, 2014 Rise Set
Actual Time 7:31 AM EST 5:55 PM EST
Civil Twilight 7:05 AM EST 6:21 PM EST
Nautical Twilight 6:35 AM EST 6:51 PM EST
Astronomical Twilight 6:07 AM EST 7:20 PM EST
Moon 4:58 PM EST (1/14) 6:06 AM EST (1/14)
Length of Visible Light 11h 16m
Length of Day
10h 24m
Waxing Gibbous, 98% of the Moon is Illuminated
Jan 14
Waxing Gibbous
Jan 15
Full
Jan 24
Last Quarter
Jan 30
New
Feb 6
First Quarter

Hourly Weather History & Observations

Time (EST) Temp. Dew Point Humidity Pressure Visibility Wind Dir Wind Speed Gust Speed Precip Events Conditions
12:15 AM 59.0 °F 57.2 °F 94% 29.95 in 5.0 mi Calm Calm - N/A Rain Rain
12:35 AM 59.0 °F 57.2 °F 94% 29.96 in 2.5 mi Calm Calm - N/A Rain Heavy Rain
12:53 AM 59.0 °F 55.9 °F 90% 29.94 in - Calm Calm - 0.08 in   Unknown
12:55 AM 59.0 °F 57.2 °F 94% 29.95 in 7.0 mi Calm Calm - N/A Rain Light Rain
1:15 AM 59.0 °F 57.2 °F 94% 29.94 in 7.0 mi Calm Calm - N/A Rain Rain
1:35 AM 59.0 °F 57.2 °F 94% 29.93 in 10.0 mi Calm Calm - N/A   Overcast
1:53 AM 59.0 °F 57.0 °F 93% 29.91 in - SE 3.5 mph - 0.02 in   Unknown
1:55 AM 59.0 °F 57.2 °F 94% 29.92 in 10.0 mi Calm Calm - N/A   Overcast
2:15 AM 59.0 °F 57.2 °F 94% 29.92 in 10.0 mi Calm Calm - 0.01 in Rain Rain
2:35 AM 59.0 °F 57.2 °F 94% 29.92 in 10.0 mi SE 3.5 mph - 0.01 in   Light Drizzle
2:53 AM 59.0 °F 57.0 °F 93% 29.91 in - South 4.6 mph - N/A   Unknown
2:55 AM 59.0 °F 57.2 °F 94% 29.91 in 10.0 mi SSE 4.6 mph - 0.01 in   Overcast
3:15 AM 59.0 °F 59.0 °F 100% 29.92 in 7.0 mi Calm Calm - N/A   Drizzle
3:35 AM 59.0 °F 59.0 °F 100% 29.92 in 10.0 mi SSE 3.5 mph - N/A Rain Light Rain
3:53 AM 59.0 °F 57.0 °F 93% 29.88 in - SE 6.9 mph - 0.02 in   Unknown
3:55 AM 59.0 °F 59.0 °F 100% 29.89 in 10.0 mi SE 6.9 mph - N/A   Light Drizzle
4:15 AM 59.0 °F 59.0 °F 100% 29.87 in 10.0 mi SSE 8.1 mph - N/A   Overcast
4:35 AM 60.8 °F 59.0 °F 94% 29.88 in 10.0 mi South 8.1 mph - N/A   Overcast
4:53 AM 61.0 °F 57.9 °F 90% 29.89 in - South 10.4 mph - N/A   Unknown
4:55 AM 60.8 °F 59.0 °F 94% 29.90 in 10.0 mi South 8.1 mph - N/A   Light Drizzle
5:15 AM 60.8 °F 59.0 °F 94% 29.91 in 10.0 mi South 8.1 mph - N/A   Light Drizzle
5:35 AM 60.8 °F 59.0 °F 94% 29.89 in 10.0 mi South 4.6 mph - N/A   Light Drizzle
5:53 AM 62.1 °F 59.0 °F 90% 29.89 in - WSW 3.5 mph - 0.01 in   Unknown
5:55 AM 60.8 °F 60.8 °F 100% 29.91 in 10.0 mi WSW 4.6 mph - N/A   Drizzle
6:15 AM 60.8 °F 59.0 °F 94% 29.89 in 10.0 mi Calm Calm - N/A   Light Drizzle
6:35 AM 60.8 °F 60.8 °F 100% 29.89 in 10.0 mi SSW 4.6 mph - 0.01 in Rain Rain
6:53 AM 62.1 °F 59.0 °F 90% 29.90 in - SW 15.0 mph - N/A   Unknown
6:55 AM 60.8 °F 60.8 °F 100% 29.91 in 10.0 mi WSW 12.7 mph 16.1 mph 0.01 in Rain Light Rain
7:15 AM 60.8 °F 60.8 °F 100% 29.90 in 10.0 mi SSW 10.4 mph - N/A Rain Light Rain
7:35 AM 60.8 °F 60.8 °F 100% 29.91 in 10.0 mi SSW 6.9 mph - N/A Rain Rain
7:53 AM 62.1 °F 59.0 °F 90% 29.90 in - SSW 6.9 mph - 0.02 in   Unknown
7:55 AM 60.8 °F 60.8 °F 100% 29.91 in 10.0 mi SSW 5.8 mph - N/A Rain Light Rain
8:15 AM 60.8 °F 60.8 °F 100% 29.92 in 10.0 mi SSW 6.9 mph - N/A   Overcast
8:35 AM 60.8 °F 60.8 °F 100% 29.93 in 10.0 mi SW 5.8 mph - 0.01 in Rain Rain
8:53 AM 63.0 °F 59.0 °F 87% 29.94 in - SW 10.4 mph - 0.01 in   Unknown
8:55 AM 60.8 °F 60.8 °F 100% 29.95 in 10.0 mi SW 8.1 mph - 0.01 in   Overcast
9:15 AM 62.6 °F 60.8 °F 94% 29.96 in 2.5 mi WSW 12.7 mph 18.4 mph N/A   Drizzle
9:35 AM 60.8 °F 60.8 °F 100% 29.97 in 5.0 mi West 12.7 mph - N/A   Overcast
9:53 AM 63.0 °F 59.0 °F 87% 29.97 in - WNW 8.1 mph - 0.01 in   Unknown
9:55 AM 60.8 °F 60.8 °F 100% 29.98 in 10.0 mi WNW 6.9 mph - N/A   Overcast
10:15 AM 62.6 °F 60.8 °F 94% 29.99 in 10.0 mi NW 9.2 mph - N/A   Mostly Cloudy
10:35 AM 62.6 °F 60.8 °F 94% 30.00 in 10.0 mi WNW 10.4 mph 16.1 mph 0.01 in   Scattered Clouds
10:53 AM 63.0 °F 57.0 °F 81% 29.99 in - NW 10.4 mph - N/A   Unknown
10:55 AM 62.6 °F 59.0 °F 88% 30.00 in 10.0 mi NW 9.2 mph - 0.01 in   Scattered Clouds
11:15 AM 62.6 °F 59.0 °F 88% 30.00 in 10.0 mi WNW 6.9 mph - N/A   Scattered Clouds
11:35 AM 64.4 °F 59.0 °F 83% 29.99 in 10.0 mi NW 6.9 mph - N/A   Scattered Clouds
11:53 AM 66.9 °F 55.9 °F 68% 29.97 in - NW 6.9 mph - N/A   Unknown
11:55 AM 66.2 °F 57.2 °F 73% 29.98 in 10.0 mi NNW 5.8 mph - N/A   Scattered Clouds
12:15 PM 68.0 °F 55.4 °F 64% 29.97 in 10.0 mi NNW 10.4 mph - N/A   Clear
12:35 PM 68.0 °F 50.0 °F 52% 29.96 in 10.0 mi NW 10.4 mph - N/A   Clear
12:53 PM 69.1 °F 46.9 °F 45% 29.95 in - NW 9.2 mph - 0.02 in   Unknown
12:55 PM 68.0 °F 46.4 °F 46% 29.96 in 10.0 mi NW 11.5 mph - 0.01 in   Clear
1:15 PM 68.0 °F 46.4 °F 46% 29.96 in 10.0 mi NNW 6.9 mph 10.4 mph N/A   Clear
1:35 PM 69.8 °F 46.4 °F 43% 29.95 in 10.0 mi NW 11.5 mph - N/A   Clear
1:53 PM 70.0 °F 45.0 °F 41% 29.94 in - NW 8.1 mph - N/A   Unknown
1:55 PM 69.8 °F 42.8 °F 38% 29.95 in 10.0 mi NW 10.4 mph - N/A   Clear
2:15 PM 69.8 °F 44.6 °F 40% 29.95 in 10.0 mi West 10.4 mph - N/A   Clear
2:35 PM 69.8 °F 44.6 °F 40% 29.95 in 10.0 mi NNW 9.2 mph - N/A   Clear
2:53 PM 71.1 °F 45.0 °F 39% 29.94 in - NNW 9.2 mph - N/A   Unknown
2:55 PM 69.8 °F 44.6 °F 40% 29.95 in 10.0 mi NNW 6.9 mph - N/A   Clear
3:15 PM 68.0 °F 41.0 °F 37% 29.96 in 10.0 mi North 9.2 mph - N/A   Clear
3:35 PM 68.0 °F 42.8 °F 40% 29.96 in 10.0 mi NNW 5.8 mph - N/A   Clear
3:53 PM 70.0 °F 44.1 °F 39% 29.95 in - NNW 8.1 mph - N/A   Unknown
3:55 PM 68.0 °F 42.8 °F 40% 29.96 in 10.0 mi North 9.2 mph - N/A   Clear
4:15 PM 68.0 °F 41.0 °F 37% 29.97 in 10.0 mi North 8.1 mph - 0.01 in   Clear
4:35 PM 68.0 °F 35.6 °F 30% 29.97 in 10.0 mi NNW 5.8 mph - 0.01 in   Clear
4:53 PM 68.0 °F 37.9 °F 33% 29.96 in - NNW 8.1 mph - N/A   Unknown
4:55 PM 66.2 °F 35.6 °F 32% 29.97 in 10.0 mi North 4.6 mph - 0.01 in   Clear
5:20 PM 64.4 °F 37.4 °F 37% 29.98 in 10.0 mi NNW 4.6 mph - N/A   Clear
5:35 PM 64.4 °F 37.4 °F 37% 29.98 in 10.0 mi NW 3.5 mph - N/A   Clear
5:53 PM 61.0 °F 39.9 °F 46% 29.98 in - Calm Calm - N/A   Unknown
5:55 PM 60.8 °F 39.2 °F 45% 29.99 in 10.0 mi NW 3.5 mph - N/A   Clear
6:15 PM 59.0 °F 42.8 °F 55% 29.99 in 10.0 mi Calm Calm - N/A   Clear
6:35 PM 53.6 °F 42.8 °F 67% 30.00 in 10.0 mi Calm Calm - N/A   Clear
6:53 PM 53.1 °F 44.1 °F 71% 30.00 in - Calm Calm - N/A   Unknown
6:55 PM 51.8 °F 44.6 °F 76% 30.00 in 10.0 mi Calm Calm - N/A   Clear
7:15 PM 51.8 °F 44.6 °F 76% 30.02 in 10.0 mi Calm Calm - N/A   Clear
7:35 PM 50.0 °F 44.6 °F 82% 30.02 in 10.0 mi Calm Calm - N/A   Clear
7:53 PM 50.0 °F 43.0 °F 77% 30.02 in - Calm Calm - N/A   Unknown
7:55 PM 50.0 °F 44.6 °F 82% 30.03 in 10.0 mi Calm Calm - N/A   Clear
8:15 PM 48.2 °F 44.6 °F 87% 30.04 in 10.0 mi Calm Calm - N/A   Clear
8:35 PM 46.4 °F 42.8 °F 87% 30.04 in 10.0 mi Calm Calm - N/A   Clear
8:53 PM 48.9 °F 44.1 °F 83% 30.04 in - Calm Calm - N/A   Unknown
8:55 PM 46.4 °F 44.6 °F 93% 30.05 in 10.0 mi Calm Calm - N/A   Clear
9:15 PM 46.4 °F 42.8 °F 87% 30.06 in 10.0 mi Calm Calm - N/A   Clear
9:35 PM 46.4 °F 44.6 °F 93% 30.06 in 10.0 mi Calm Calm - N/A   Clear
9:53 PM 46.0 °F 42.1 °F 86% 30.05 in - Calm Calm - N/A   Unknown
9:55 PM 44.6 °F 42.8 °F 93% 30.06 in 10.0 mi Calm Calm - N/A   Clear
10:15 PM 44.6 °F 42.8 °F 93% 30.06 in 10.0 mi Calm Calm - N/A   Clear
10:35 PM 44.6 °F 42.8 °F 93% 30.06 in 10.0 mi Calm Calm - N/A   Clear
10:53 PM 46.0 °F 42.1 °F 86% 30.05 in - Calm Calm - N/A   Unknown
10:55 PM 44.6 °F 42.8 °F 93% 30.06 in 10.0 mi Calm Calm - 0.01 in   Clear
11:15 PM 44.6 °F 42.8 °F 93% 30.05 in 10.0 mi Calm Calm - N/A   Clear
11:35 PM 44.6 °F 42.8 °F 93% 30.05 in 10.0 mi Calm Calm - N/A   Clear
11:53 PM 44.1 °F 39.9 °F 85% 30.04 in - Calm Calm - N/A   Unknown
11:55 PM 44.6 °F 42.8 °F 93% 30.05 in 10.0 mi Calm Calm - N/A   Clear